UZB1025 UAAA-UZTT

Flight info

Callsign UZB1025
Flight time 1h 12m
Altitude 36000
Route EKLAT1B EKLAT Z370 AGLEK Z817 TAR N143 SMK P178 DOSOR DOSOR2W
Aircraft A320/M-SDE3FGHIRWY/LB1

Departure

Time 2026-04-25 19:23
Airport Almaty International Airport (UAAA)

Arrival

Time 2026-04-25 20:36
Airport Tashkent International Airport (UZTT)
Time Latitude Longitude Altitude Speed Heading
2026-04-25 18:53 43.34911 77.01336 2229 ft 0 kts 245°
2026-04-25 19:06 43.34918 77.01357 2225 ft 3 kts 244°
2026-04-25 19:06 43.34927 77.01382 2226 ft 3 kts 240°
2026-04-25 19:07 43.34950 77.01427 2226 ft 3 kts 221°
2026-04-25 19:07 43.34965 77.01441 2227 ft 3 kts 185°
2026-04-25 19:08 43.34975 77.01441 2229 ft 0 kts 156°
2026-04-25 19:10 43.34974 77.01441 2229 ft 2 kts 156°
2026-04-25 19:10 43.34947 77.01457 2228 ft 4 kts 156°
2026-04-25 19:10 43.34921 77.01473 2229 ft 5 kts 156°
2026-04-25 19:11 43.34872 77.01502 2226 ft 9 kts 156°
2026-04-25 19:11 43.34824 77.01556 2227 ft 0 kts 119°
2026-04-25 19:19 43.34821 77.01564 2227 ft 3 kts 112°
2026-04-25 19:19 43.34815 77.01602 2227 ft 9 kts 96°
2026-04-25 19:20 43.34808 77.01760 2229 ft 16 kts 94°
2026-04-25 19:20 43.34800 77.01930 2226 ft 20 kts 94°
2026-04-25 19:20 43.34790 77.02131 2228 ft 19 kts 94°
2026-04-25 19:20 43.34784 77.02276 2228 ft 12 kts 93°
2026-04-25 19:21 43.34778 77.02398 2229 ft 15 kts 93°
2026-04-25 19:21 43.34780 77.02737 2227 ft 0 kts 86°
2026-04-25 19:22 43.34780 77.02743 2227 ft 3 kts 86°
2026-04-25 19:22 43.34783 77.02885 2228 ft 27 kts 88°
2026-04-25 19:22 43.34865 77.03237 2228 ft 5 kts 58°
2026-04-25 19:23 43.34985 77.03481 2227 ft 67 kts 56°
2026-04-25 19:23 43.35967 77.05476 2248 ft 174 kts 58°
2026-04-25 19:23 43.36645 77.06852 2848 ft 175 kts 56°
2026-04-25 19:24 43.37260 77.08079 3437 ft 179 kts 55°
2026-04-25 19:24 43.38018 77.09539 3804 ft 198 kts 54°
2026-04-25 19:24 43.39892 77.12823 4441 ft 239 kts 38°
2026-04-25 19:25 43.43258 77.13258 5423 ft 273 kts 329°
2026-04-25 19:25 43.44580 77.11398 6222 ft 277 kts 295°
2026-04-25 19:25 43.45038 77.08843 7062 ft 277 kts 275°
2026-04-25 19:26 43.45183 77.06191 7935 ft 279 kts 272°
2026-04-25 19:26 43.45247 77.03514 8816 ft 281 kts 271°
2026-04-25 19:26 43.45292 77.00823 9700 ft 282 kts 271°
2026-04-25 19:26 43.45344 76.98096 10372 ft 293 kts 271°
2026-04-25 19:27 43.45414 76.95183 10620 ft 316 kts 271°
2026-04-25 19:27 43.45443 76.94145 10694 ft 324 kts 272°
2026-04-25 19:27 43.45621 76.88714 11215 ft 353 kts 272°
2026-04-25 19:27 43.45744 76.85311 11856 ft 358 kts 272°
2026-04-25 19:28 43.45870 76.81869 12545 ft 362 kts 272°
2026-04-25 19:28 43.45998 76.78392 13261 ft 365 kts 272°
2026-04-25 19:28 43.46126 76.74890 13978 ft 368 kts 272°
2026-04-25 19:28 43.46253 76.71359 14589 ft 371 kts 273°
2026-04-25 19:29 43.46376 76.67781 15191 ft 375 kts 273°
2026-04-25 19:29 43.46496 76.64173 15772 ft 379 kts 273°
2026-04-25 19:29 43.46614 76.60527 16355 ft 383 kts 273°
2026-04-25 19:29 43.46732 76.56838 16935 ft 387 kts 273°
2026-04-25 19:30 43.46853 76.53169 17511 ft 391 kts 273°
2026-04-25 19:30 43.46978 76.49400 18087 ft 395 kts 273°
2026-04-25 19:30 43.47104 76.45592 18622 ft 400 kts 273°
2026-04-25 19:30 43.47231 76.41757 19135 ft 403 kts 273°
2026-04-25 19:31 43.47355 76.37892 19655 ft 406 kts 273°
2026-04-25 19:31 43.47478 76.33997 20177 ft 408 kts 273°
2026-04-25 19:31 43.47601 76.30086 20685 ft 410 kts 273°
2026-04-25 19:31 43.47724 76.26150 21174 ft 412 kts 274°
2026-04-25 19:32 43.47844 76.22190 21655 ft 415 kts 274°
2026-04-25 19:32 43.47964 76.18211 22118 ft 417 kts 274°
2026-04-25 19:32 43.48082 76.14209 22568 ft 420 kts 273°
2026-04-25 19:32 43.48122 76.12851 22720 ft 420 kts 273°
2026-04-25 19:33 43.48315 76.06137 23462 ft 424 kts 273°
2026-04-25 19:33 43.48390 76.03449 23737 ft 425 kts 273°
2026-04-25 19:33 43.48503 75.99372 24087 ft 427 kts 273°
2026-04-25 19:33 43.48618 75.95279 24433 ft 429 kts 273°
2026-04-25 19:34 43.48734 75.91157 24774 ft 431 kts 273°
2026-04-25 19:34 43.48849 75.87024 25106 ft 433 kts 273°
2026-04-25 19:34 43.48962 75.82868 25433 ft 435 kts 273°
2026-04-25 19:34 43.49074 75.78698 25753 ft 437 kts 273°
2026-04-25 19:35 43.49183 75.74515 26071 ft 438 kts 272°
2026-04-25 19:35 43.49290 75.70313 26385 ft 440 kts 272°
2026-04-25 19:35 43.49394 75.66101 26682 ft 441 kts 272°
2026-04-25 19:35 43.49498 75.61861 26968 ft 443 kts 272°
2026-04-25 19:36 43.49604 75.57606 27242 ft 445 kts 272°
2026-04-25 19:36 43.49708 75.53343 27508 ft 447 kts 272°
2026-04-25 19:36 43.49811 75.49058 27782 ft 448 kts 272°
2026-04-25 19:36 43.49945 75.44760 27748 ft 452 kts 275°
2026-04-25 19:37 43.50331 75.40451 27747 ft 456 kts 274°
2026-04-25 19:37 43.50484 75.36050 28200 ft 453 kts 271°
2026-04-25 19:37 43.50495 75.31777 28502 ft 452 kts 270°
2026-04-25 19:37 43.50456 75.27452 28850 ft 451 kts 270°
2026-04-25 19:38 43.50432 75.23141 29184 ft 450 kts 270°
2026-04-25 19:38 43.50449 75.18835 29519 ft 449 kts 271°
2026-04-25 19:38 43.50511 75.14543 29858 ft 448 kts 272°
2026-04-25 19:38 43.50606 75.10260 30191 ft 447 kts 272°
2026-04-25 19:39 43.50716 75.05985 30481 ft 446 kts 272°
2026-04-25 19:39 43.50826 75.01730 30823 ft 443 kts 272°
2026-04-25 19:39 43.50927 74.97495 31149 ft 441 kts 272°
2026-04-25 19:39 43.51015 74.93279 31462 ft 440 kts 272°
2026-04-25 19:40 43.51093 74.89073 31758 ft 438 kts 272°
2026-04-25 19:40 43.51165 74.84877 32057 ft 437 kts 272°
2026-04-25 19:40 43.51158 74.80687 32357 ft 437 kts 265°
2026-04-25 19:40 43.50610 74.76566 32643 ft 438 kts 259°
2026-04-25 19:41 43.49945 74.72478 32922 ft 437 kts 259°
2026-04-25 19:41 43.49279 74.68395 33218 ft 436 kts 259°
2026-04-25 19:41 43.48609 74.64325 33515 ft 435 kts 259°
2026-04-25 19:41 43.48162 74.61633 33693 ft 435 kts 259°
2026-04-25 19:42 43.47259 74.56215 34099 ft 433 kts 259°
2026-04-25 19:42 43.46578 74.52170 34352 ft 433 kts 259°
2026-04-25 19:42 43.45903 74.48189 34581 ft 433 kts 259°
2026-04-25 19:42 43.45219 74.44161 34823 ft 432 kts 259°
2026-04-25 19:43 43.44536 74.40125 35056 ft 432 kts 259°
2026-04-25 19:43 43.43857 74.36103 35291 ft 431 kts 259°
2026-04-25 19:43 43.43180 74.32094 35505 ft 430 kts 259°
2026-04-25 19:43 43.42500 74.28078 35729 ft 430 kts 259°
2026-04-25 19:44 43.41822 74.24081 35948 ft 429 kts 259°
2026-04-25 19:44 43.41141 74.20081 36068 ft 430 kts 259°
2026-04-25 19:44 43.39763 74.12048 36100 ft 432 kts 259°
2026-04-25 19:45 43.38368 74.04004 36095 ft 432 kts 259°
2026-04-25 19:45 43.36976 73.95967 36095 ft 432 kts 259°
2026-04-25 19:46 43.35589 73.87939 36087 ft 431 kts 259°
2026-04-25 19:46 43.34197 73.79923 36086 ft 431 kts 259°
2026-04-25 19:47 43.32793 73.71916 36084 ft 431 kts 259°
2026-04-25 19:47 43.31379 73.63905 36069 ft 431 kts 259°
2026-04-25 19:48 43.29967 73.55966 36066 ft 431 kts 259°
2026-04-25 19:48 43.28536 73.47915 36067 ft 431 kts 259°
2026-04-25 19:49 43.27356 73.41269 36072 ft 432 kts 259°
2026-04-25 19:49 43.25693 73.31967 36074 ft 432 kts 259°
2026-04-25 19:50 43.23536 73.19966 36067 ft 432 kts 258°
2026-04-25 19:51 43.22081 73.11970 36071 ft 432 kts 258°
2026-04-25 19:51 43.20621 73.03969 36081 ft 433 kts 258°
2026-04-25 19:52 43.19162 72.95971 36084 ft 433 kts 258°
2026-04-25 19:52 43.17696 72.87978 36088 ft 432 kts 258°
2026-04-25 19:53 43.16226 72.79994 36095 ft 432 kts 258°
2026-04-25 19:53 43.14754 72.72027 36097 ft 431 kts 258°
2026-04-25 19:54 43.13272 72.64063 36096 ft 431 kts 258°
2026-04-25 19:54 43.11789 72.56105 36099 ft 431 kts 258°
2026-04-25 19:55 43.10312 72.48202 36105 ft 430 kts 258°
2026-04-25 19:55 43.08814 72.40273 36120 ft 430 kts 258°
2026-04-25 19:56 43.07324 72.32347 36122 ft 430 kts 258°
2026-04-25 19:56 43.05830 72.24425 36124 ft 430 kts 257°
2026-04-25 19:57 43.04321 72.16515 36133 ft 430 kts 257°
2026-04-25 19:57 43.02799 72.08610 36132 ft 430 kts 257°
2026-04-25 19:58 43.01289 72.00768 36126 ft 429 kts 257°
2026-04-25 19:58 42.99768 71.92881 36126 ft 429 kts 257°
2026-04-25 19:59 42.98242 71.85005 36132 ft 429 kts 257°
2026-04-25 19:59 42.96716 71.77140 36135 ft 428 kts 257°
2026-04-25 20:00 42.95183 71.69286 36136 ft 428 kts 257°
2026-04-25 20:00 42.93646 71.61444 36138 ft 428 kts 257°
2026-04-25 20:01 42.91332 71.49680 36137 ft 427 kts 257°
2026-04-25 20:01 42.89777 71.41855 36138 ft 427 kts 257°
2026-04-25 20:02 42.88233 71.34089 36130 ft 427 kts 257°
2026-04-25 20:02 42.86515 71.26334 36130 ft 429 kts 250°
2026-04-25 20:03 42.84256 71.18810 36130 ft 429 kts 250°
2026-04-25 20:03 42.81981 71.11287 36135 ft 430 kts 250°
2026-04-25 20:04 42.79709 71.03764 36135 ft 430 kts 250°
2026-04-25 20:04 42.77435 70.96229 36142 ft 430 kts 250°
2026-04-25 20:05 42.75151 70.88703 36155 ft 430 kts 250°
2026-04-25 20:05 42.72864 70.81194 36157 ft 430 kts 250°
2026-04-25 20:06 42.70568 70.73683 36171 ft 430 kts 250°
2026-04-25 20:06 42.68272 70.66174 36171 ft 430 kts 250°
2026-04-25 20:07 42.65995 70.58666 36174 ft 429 kts 251°
2026-04-25 20:07 42.63903 70.51077 36180 ft 428 kts 253°
2026-04-25 20:08 42.61886 70.43473 36178 ft 427 kts 253°
2026-04-25 20:08 42.59846 70.35895 36175 ft 427 kts 252°
2026-04-25 20:09 42.57762 70.28357 36168 ft 426 kts 252°
2026-04-25 20:09 42.55666 70.20843 36180 ft 426 kts 252°
2026-04-25 20:10 42.53585 70.13386 36157 ft 425 kts 252°
2026-04-25 20:10 42.51508 70.05897 36158 ft 423 kts 253°
2026-04-25 20:11 42.49699 69.98326 36142 ft 422 kts 256°
2026-04-25 20:11 42.48037 69.90712 36126 ft 421 kts 256°
2026-04-25 20:12 42.46342 69.83122 36119 ft 420 kts 256°
2026-04-25 20:12 42.45476 69.79367 35869 ft 413 kts 255°
2026-04-25 20:12 42.45184 69.78116 35786 ft 409 kts 255°
2026-04-25 20:13 42.43776 69.72119 35366 ft 398 kts 255°
2026-04-25 20:13 42.42941 69.68560 35114 ft 395 kts 256°
2026-04-25 20:13 42.42113 69.65013 34858 ft 394 kts 256°
2026-04-25 20:13 42.41291 69.61484 34622 ft 393 kts 256°
2026-04-25 20:14 42.40470 69.57967 34381 ft 392 kts 256°
2026-04-25 20:14 42.39657 69.54494 33751 ft 394 kts 256°
2026-04-25 20:14 42.38674 69.51006 33060 ft 398 kts 246°
2026-04-25 20:14 42.37266 69.47814 32663 ft 395 kts 237°
2026-04-25 20:15 42.35456 69.44993 32152 ft 398 kts 227°
2026-04-25 20:15 42.33284 69.42658 31623 ft 401 kts 217°
2026-04-25 20:15 42.30806 69.40887 31114 ft 406 kts 206°
2026-04-25 20:15 42.28160 69.39538 30616 ft 405 kts 205°
2026-04-25 20:16 42.25531 69.38205 30141 ft 403 kts 205°
2026-04-25 20:16 42.22919 69.36874 29630 ft 400 kts 205°
2026-04-25 20:16 42.20324 69.35548 29133 ft 397 kts 205°
2026-04-25 20:16 42.17750 69.34230 28648 ft 394 kts 205°
2026-04-25 20:17 42.15195 69.32923 28184 ft 391 kts 205°
2026-04-25 20:17 42.12659 69.31628 27723 ft 388 kts 204°
2026-04-25 20:17 42.10142 69.30350 27269 ft 386 kts 204°
2026-04-25 20:17 42.07638 69.29082 26830 ft 383 kts 204°
2026-04-25 20:18 42.05154 69.27824 26390 ft 380 kts 204°
2026-04-25 20:18 42.02787 69.26317 25963 ft 374 kts 212°
2026-04-25 20:18 42.00517 69.24667 25588 ft 370 kts 211°
2026-04-25 20:18 41.98252 69.23023 25093 ft 369 kts 211°
2026-04-25 20:19 41.96757 69.21939 24776 ft 369 kts 211°
2026-04-25 20:19 41.94462 69.20395 24311 ft 369 kts 204°
2026-04-25 20:19 41.92069 69.19158 23851 ft 368 kts 204°
2026-04-25 20:19 41.89681 69.17929 23346 ft 367 kts 203°
2026-04-25 20:20 41.86528 69.16306 22639 ft 366 kts 203°
2026-04-25 20:20 41.84156 69.15091 22108 ft 365 kts 203°
2026-04-25 20:20 41.82552 69.14271 21771 ft 365 kts 203°
2026-04-25 20:20 41.80187 69.13059 21271 ft 364 kts 203°
2026-04-25 20:21 41.77824 69.11848 20757 ft 363 kts 202°
2026-04-25 20:21 41.75493 69.10657 20269 ft 362 kts 202°
2026-04-25 20:21 41.73146 69.09457 19794 ft 361 kts 202°
2026-04-25 20:21 41.70795 69.08251 19361 ft 359 kts 202°
2026-04-25 20:22 41.68501 69.07078 19236 ft 347 kts 202°
2026-04-25 20:22 41.67024 69.06325 19139 ft 340 kts 202°
2026-04-25 20:22 41.64113 69.04846 18881 ft 328 kts 202°
2026-04-25 20:22 41.62010 69.03777 18760 ft 318 kts 202°
2026-04-25 20:23 41.59974 69.02743 18581 ft 307 kts 202°
2026-04-25 20:23 41.57995 69.01737 18033 ft 302 kts 202°
2026-04-25 20:23 41.56047 69.00742 17423 ft 298 kts 204°
2026-04-25 20:23 41.54280 68.99377 16817 ft 292 kts 221°
2026-04-25 20:24 41.52918 68.97408 16226 ft 287 kts 238°
2026-04-25 20:24 41.52062 68.95029 15663 ft 284 kts 253°
2026-04-25 20:24 41.51624 68.92469 15089 ft 282 kts 258°
2026-04-25 20:24 41.51212 68.89913 14430 ft 284 kts 257°
2026-04-25 20:25 41.50777 68.87316 13654 ft 289 kts 254°
2026-04-25 20:25 41.50036 68.84851 12819 ft 292 kts 241°
2026-04-25 20:25 41.48971 68.82526 12011 ft 294 kts 238°
2026-04-25 20:25 41.47889 68.80196 11220 ft 296 kts 238°
2026-04-25 20:26 41.46807 68.77859 10434 ft 297 kts 238°
2026-04-25 20:26 41.45699 68.75535 9651 ft 296 kts 233°
2026-04-25 20:26 41.44299 68.73518 8696 ft 299 kts 220°
2026-04-25 20:26 41.42681 68.71755 7724 ft 302 kts 219°
2026-04-25 20:27 41.41045 68.69984 6779 ft 304 kts 218°
2026-04-25 20:27 41.39245 68.68543 5943 ft 300 kts 199°
2026-04-25 20:27 41.37282 68.68092 5756 ft 275 kts 179°
2026-04-25 20:27 41.35485 68.68480 5635 ft 255 kts 161°
2026-04-25 20:28 41.33952 68.69572 5508 ft 249 kts 143°
2026-04-25 20:28 41.32771 68.71248 5384 ft 250 kts 125°
2026-04-25 20:28 41.31962 68.73297 5274 ft 250 kts 118°
2026-04-25 20:28 41.31201 68.75376 5155 ft 250 kts 118°
2026-04-25 20:29 41.30438 68.77451 5035 ft 249 kts 118°
2026-04-25 20:29 41.29677 68.79516 4915 ft 248 kts 118°
2026-04-25 20:29 41.28915 68.81575 4793 ft 248 kts 118°
2026-04-25 20:29 41.28155 68.83629 4673 ft 247 kts 118°
2026-04-25 20:30 41.27655 68.84981 4588 ft 246 kts 118°
2026-04-25 20:30 41.26645 68.87713 4428 ft 246 kts 118°
2026-04-25 20:30 41.25887 68.89759 4305 ft 246 kts 118°
2026-04-25 20:30 41.25133 68.91796 4183 ft 245 kts 118°
2026-04-25 20:31 41.24423 68.93716 4087 ft 245 kts 118°
2026-04-25 20:31 41.23683 68.95715 3990 ft 244 kts 118°
2026-04-25 20:31 41.22969 68.97767 4000 ft 253 kts 110°
2026-04-25 20:31 41.22730 69.00146 4002 ft 267 kts 87°
2026-04-25 20:32 41.22982 69.02610 4002 ft 270 kts 83°
2026-04-25 20:32 41.23275 69.05083 4004 ft 270 kts 83°
2026-04-25 20:32 41.23548 69.07464 3966 ft 251 kts 84°
2026-04-25 20:32 41.23797 69.09678 3746 ft 235 kts 84°
2026-04-25 20:33 41.24029 69.11755 3469 ft 217 kts 85°
2026-04-25 20:33 41.24245 69.13688 3204 ft 207 kts 85°
2026-04-25 20:33 41.24449 69.15509 2970 ft 193 kts 85°
2026-04-25 20:33 41.24579 69.16670 2782 ft 183 kts 86°
2026-04-25 20:34 41.24809 69.18724 2502 ft 158 kts 86°
2026-04-25 20:34 41.24961 69.20102 2304 ft 144 kts 83°
2026-04-25 20:34 41.25104 69.21400 2112 ft 139 kts 82°
2026-04-25 20:34 41.25241 69.22667 1881 ft 138 kts 80°
2026-04-25 20:35 41.25375 69.23928 1726 ft 137 kts 79°
2026-04-25 20:35 41.25517 69.25182 1557 ft 137 kts 79°
2026-04-25 20:35 41.25658 69.26425 1416 ft 135 kts 80°
2026-04-25 20:35 41.25781 69.27524 1404 ft 100 kts 81°
2026-04-25 20:36 41.25857 69.28246 1398 ft 56 kts 82°
2026-04-25 20:36 41.25911 69.28716 1398 ft 36 kts 81°
2026-04-25 20:36 41.25965 69.28897 1394 ft 16 kts 21°
2026-04-25 20:36 41.26054 69.28838 1386 ft 11 kts 318°
2026-04-25 20:37 41.26063 69.28827 1386 ft 0 kts 318°
2026-04-25 20:37 41.26068 69.28821 1387 ft 5 kts 318°
2026-04-25 20:37 41.26118 69.28762 1384 ft 11 kts 317°
2026-04-25 20:38 41.26177 69.28657 1383 ft 19 kts 288°
2026-04-25 20:38 41.26188 69.28490 1382 ft 18 kts 273°
2026-04-25 20:38 41.26186 69.28335 1382 ft 16 kts 262°
2026-04-25 20:38 41.26171 69.28202 1383 ft 14 kts 261°
2026-04-25 20:39 41.26157 69.28071 1381 ft 14 kts 262°
2026-04-25 20:39 41.26156 69.28057 1380 ft 0 kts 262°
2026-04-25 20:39 41.26151 69.28022 1379 ft 12 kts 261°
2026-04-25 20:39 41.26140 69.27918 1383 ft 19 kts 261°
2026-04-25 20:40 41.26106 69.27620 1382 ft 27 kts 261°
2026-04-25 20:40 41.26077 69.27363 1379 ft 23 kts 262°
2026-04-25 20:40 41.26026 69.27167 1380 ft 23 kts 246°
2026-04-25 20:40 41.25979 69.27022 1380 ft 13 kts 264°
2026-04-25 20:41 41.25999 69.27003 1381 ft 0 kts 51°
2026-04-25 20:41 41.25993 69.27053 1369 ft 16 kts 88°
2026-04-25 20:41 41.26038 69.27197 1380 ft 15 kts 47°
2026-04-25 20:41 41.26137 69.27157 1381 ft 21 kts 316°
2026-04-25 20:42 41.26229 69.27075 1380 ft 11 kts 342°
2026-04-25 20:42 41.26302 69.27049 1381 ft 8 kts 323°
2026-04-25 20:42 41.26308 69.27012 1380 ft 0 kts 248°
2026-04-25 20:42 41.26308 69.27011 1380 ft 1 kts 247°
2026-04-25 20:43 41.26300 69.27005 1381 ft 2 kts 209°